Location: Austin
(30.3000°N, 97.7500°W)
Time: 01:13:23
(UTC-05:00)

Cosmos 1076 Rocket - Pass Details

Date: 15 May 2024
Orbit: 584 x 609 km, 82.5° (Epoch: 19 May)

Event Time Altitude Azimuth Distance (km) Brightness Sun altitude
Rises 22:03:34 0° 348° (NNW) 2,811 7.7 -20.3°
Reaches altitude 10° 22:05:48 10° 344° (NNW) 1,910 6.8 -20.7°
Maximum altitude 22:09:54 55° 267° (W) 710 4.0 -21.4°
Enters shadow 22:11:42 30° 204° (SSW) 1,051 4.5 -21.7°
